Location: *
(23.5860°S, 65.4036°W)
Time: 06:22:57
(UTC+00:00)

Cosmos 2082 Rocket - Pass Details

Date: 25 August 2019
Orbit: 831 x 855 km, 71.0° (Epoch: 21 September)

Event Time Altitude Azimuth Distance (km) Brightness Sun altitude
Rises 22:29:03 0° 181° (S) 3,400 5.3 -5.4°
Reaches altitude 10° 22:31:58 10° 167° (SSE) 2,458 4.4 -6.1°
Maximum altitude 22:36:29 24° 114° (ESE) 1,651 3.2 -7.1°
Drops below altitude 10° 22:40:57 10° 60° (ENE) 2,438 4.1 -8.1°
Sets 22:43:49 0° 47° (NE) 3,366 4.9 -8.8°
